Wind_Speed
6 5 5 5 5 6 6 6 7 6 6 7 7 7 7 7 7 8 8 7 6 6 5 6 6 6 7 7 6 7 7 6 6 6 5 6 6 6 6 6 6 6 6
7 6 6 6 7 7 8 7 7 7 7 7 8 7 8 8 8 8 8 8 8 8 8 7 8 8 7 7 8 8 8 7 8 8 7 7 7 7 7 7 7 7 8
9 7 7 7 8 8 8 8 7 7 7 7 8 8 9 9 9 8 8 9 9 9 9 9 9 9 8 8 9 10 10 10 9 9 9 9 9 9 8 9 9 9 9
11 10 9 9 8 8 8 8 8 8 8 8 8 9 10 9 9 9 10 10 11 11 11 11 11 11 10 10 10 11 12 11 11 10 10 10 11 10 10 10 11 11 10
11 10 9 10 10 9 8 7 8 8 8 9 9 9 9 9 9 10 11 11 11 12 12 12 12 12 12 12 12 12 12 12 12 11 11 11 12 12 12 12 12 12 12
11 11 11 11 10 10 9 9 9 10 10 9 9 9 9 10 10 11 11 11 12 13 13 13 13 14 13 13 13 13 13 14 13 13 13 13 13 13 13 14 13 13 13
12 11 12 11 10 10 10 10 11 11 10 10 10 10 10 10 10 11 12 13 13 13 13 14 14 15 15 15 15 15 15 15 14 14 14 14 15 15 14 14 15 15 15
12 12 11 12 10 10 10 11 12 10 10 10 10 10 10 10 10 11 12 13 14 14 13 14 15 16 16 16 16 17 17 16 16 15 16 16 15 15 16 16 16 16 15
12 13 13 12 12 12 12 12 12 11 10 10 10 10 11 11 12 13 14 14 15 15 15 16 16 16 16 17 17 17 18 17 18 17 16 16 16 16 16 16 17 17 16
13 14 14 14 13 13 13 13 13 12 12 11 11 11 12 12 13 14 14 15 15 15 15 16 16 16 17 17 17 17 18 19 19 18 18 18 18 18 18 18 18 18 18
15 15 15 15 14 14 14 14 14 14 13 12 12 13 13 14 15 14 14 15 16 15 16 16 17 17 17 18 18 18 19 19 19 19 20 19 19 20 19 19 19 19 19
16 17 18 18 17 16 16 15 15 15 15 14 14 14 15 15 16 16 16 17 17 17 18 18 18 19 19 20 19 19 19 19 19 20 20 20 20 21 21 20 20 21 21
19 19 20 20 20 18 17 17 16 16 15 15 16 16 17 17 18 18 18 18 19 19 19 19 19 19 20 21 21 20 20 20 21 21 21 21 21 21 22 22 22 22 23
21 21 21 21 22 21 19 18 17 18 17 17 17 18 19 19 20 19 20 20 21 21 21 20 20 20 21 21 22 22 22 22 22 22 22 22 22 22 22 23 23 23 23
22 22 22 23 23 22 21 21 20 21 20 21 20 20 21 21 22 22 22 22 23 23 22 22 22 22 23 22 22 23 24 24 24 24 23 23 23 23 23 24 24 24 24
24 24 24 24 25 24 24 24 24 23 23 23 23 23 23 23 23 24 24 25 25 24 24 24 24 24 24 24 23 24 24 25 25 25 25 25 25 25 25 25 25 25 25
25 25 25 25 25 25 26 26 25 25 25 25 25 25 25 26 26 26 26 26 26 26 26 26 25 26 26 25 25 25 25 26 26 25 25 26 26 26 27 27 26 26 26
26 26 26 27 27 27 27 27 27 27 27 27 26 27 27 27 27 27 28 28 28 28 27 27 26 26 26 26 27 27 27 27 26 26 27 27 28 28 28 28 28 28 27
27 27 28 27 28 28 28 28 28 28 28 28 28 28 28 27 27 28 28 28 28 28 28 27 27 27 27 27 27 27 28 28 27 28 28 29 29 30 29 29 29 30 30
29 28 28 29 28 28 28 28 28 28 29 29 28 28 27 28 28 28 28 28 28 28 28 28 27 27 28 28 29 29 29 29 29 29 29 29 30 30 30 30 30 30 30
31 30 30 30 29 29 29 30 30 29 30 29 29 29 29 29 30 30 30 30 29 29 29 29 29 29 30 30 30 30 30 30 30 30 30 30 30 30 30 30 30 30 30
30 30 30 30 30 30 30 30 30 30 30 30 30 30 31 31 31 31 31 31 31 31 31 31 31 31 31 31 31 31 30 31 30 30 30 30 30 30 30 31 30 30 29
30 30 30 30 30 31 30 30 30 30 30 30 30 31 32 31 32 31 32 31 32 32 32 33 32 32 32 32 31 31 31 31 31 30 30 30 30 30 30 30 30 30 30
31 30 30 31 31 30 30 30 30 30 30 30 31 31 31 31 31 31 31 32 32 33 33 33 33 33 33 32 32 31 31 31 31 30 31 31 30 30 30 30 29 29 29
32 31 30 30 30 30 30 30 31 31 30 30 31 31 31 31 31 31 31 32 32 33 33 32 32 32 32 32 31 31 30 30 30 30 30 30 30 30 29 29 29 29 29
32 31 31 31 31 31 31 31 31 31 31 31 31 31 31 31 31 31 32 32 31 31 31 31 32 32 31 31 31 31 31 31 30 30 30 30 30 30 29 29 29 29 29
Wind_Direction
349 343 344 333 329 318 306 299 300 290 284 277 274 270 262 260 266 265 266 260 263 263 262 265 271 273 279 286 287 288 284 283 289 288 291 286 286 286 277 275 272 266 264
349 346 344 338 327 317 309 303 302 295 285 276 274 274 271 267 266 266 263 264 263 260 260 265 269 274 278 282 288 287 286 284 281 279 281 284 287 291 286 274 273 269 266
355 348 344 340 333 325 316 316 308 300 293 287 282 279 277 272 267 269 266 264 262 262 262 266 269 273 276 279 283 284 285 283 278 277 278 279 281 283 287 282 272 270 268
355 356 350 347 342 337 322 314 310 307 298 289 286 283 280 272 272 271 265 264 262 261 262 264 267 271 273 276 280 282 280 281 277 276 279 276 274 275 280 280 274 271 267
354 354 352 351 349 345 336 325 316 314 304 295 291 283 277 276 276 274 271 267 264 262 262 263 265 268 271 276 279 281 280 279 277 274 276 276 276 275 276 276 276 271 266
349 346 351 351 349 346 343 340 333 328 320 315 307 298 283 278 279 274 273 270 267 265 264 264 264 267 271 275 279 279 279 276 274 274 275 274 276 277 276 273 274 272 266
350 349 350 349 348 348 346 347 340 335 329 322 319 317 303 294 284 282 280 277 273 271 268 268 267 270 275 277 278 278 279 277 273 273 274 275 275 275 273 272 271 273 271
346 344 344 343 344 344 340 336 335 333 330 326 321 319 317 310 298 293 289 288 286 280 277 277 272 272 274 277 279 279 277 275 273 273 273 273 273 273 272 272 273 274 275
344 343 341 341 345 342 335 333 332 331 329 324 319 319 316 311 307 299 294 292 289 288 284 283 280 278 278 278 279 278 277 277 274 273 274 272 271 273 272 272 273 274 274
336 335 332 332 333 334 331 329 329 326 323 321 319 315 312 315 312 307 301 296 292 291 287 286 284 283 282 281 282 281 280 279 276 273 275 274 273 271 272 273 272 273 272
329 328 326 326 324 325 325 323 321 321 320 315 312 312 313 310 310 309 305 300 297 293 290 287 286 284 282 283 283 282 282 281 279 274 273 275 274 272 272 271 272 272 272
320 320 320 320 320 318 319 319 317 316 315 312 309 307 307 306 305 305 303 300 297 295 292 290 286 283 283 283 283 281 281 281 280 278 276 275 273 272 272 271 272 272 271
314 314 313 313 313 311 311 312 312 311 311 311 308 306 305 304 304 304 301 298 296 293 291 288 287 287 285 285 282 281 279 278 278 276 276 277 275 274 274 273 273 274 272
308 308 308 309 309 306 307 309 308 308 306 305 306 306 305 305 304 303 301 298 295 292 288 286 287 288 284 282 281 282 280 278 278 277 277 276 275 274 273 274 275 275 274
304 304 305 305 307 306 305 309 304 305 305 306 304 304 304 303 303 301 300 299 297 296 291 288 287 288 286 284 280 280 279 279 278 278 276 275 275 274 273 273 273 273 274
302 303 304 305 306 306 305 304 303 301 302 303 304 303 302 301 301 300 299 298 298 297 293 289 286 286 287 283 280 281 280 279 279 279 276 275 275 275 275 273 272 272 272
300 300 300 302 304 304 303 302 301 300 299 299 300 300 300 299 299 298 297 295 295 294 291 290 288 286 284 282 280 279 279 278 278 277 276 275 275 275 274 273 273 274 273
299 299 299 298 299 301 303 301 298 297 297 298 298 298 298 297 297 296 296 294 293 291 290 289 287 286 283 281 281 280 278 277 276 276 277 276 276 275 274 273 272 272 273
297 297 296 296 296 298 300 298 296 296 296 296 296 296 297 296 296 295 294 293 291 290 289 288 286 285 285 284 283 281 280 279 278 278 277 277 276 274 273 273 273 272 272
295 295 295 295 296 297 297 295 294 294 295 296 295 297 296 296 295 294 293 292 290 289 289 288 286 285 285 284 283 281 278 278 277 278 278 277 276 275 274 274 273 273 273
296 293 293 294 294 295 295 294 293 293 295 295 295 296 297 296 295 293 293 291 289 288 288 288 287 285 284 283 282 281 280 278 277 277 277 276 276 275 276 276 275 274 274
295 295 292 293 293 294 294 293 294 294 294 295 295 297 297 297 296 294 293 291 289 288 287 287 286 285 284 284 282 280 280 279 277 276 277 276 275 274 274 275 275 274 274
295 296 293 292 293 293 292 292 294 294 295 296 296 298 299 298 298 297 295 292 290 289 288 286 285 286 284 283 282 281 280 279 277 275 274 275 275 275 275 274 274 273 273
293 294 293 291 292 291 292 293 294 295 296 296 298 300 301 300 300 300 298 295 293 292 290 287 285 285 284 283 282 280 279 278 277 276 275 275 275 275 275 274 274 273 272
292 292 292 292 291 291 292 293 293 295 295 296 298 299 300 300 300 301 299 298 296 293 291 289 288 286 284 282 281 281 280 278 277 276 275 275 276 275 274 273 273 273 271
290 291 291 292 292 292 292 292 294 294 295 296 297 298 299 299 300 300 300 299 298 296 293 290 289 288 285 283 282 280 280 279 277 275 274 274 274 274 273 272 273 274 272
Height
5889 5888 5888 5887 5887 5887 5886 5886 5886 5885 5885 5885 5886 5886 5887 5887 5887 5887 5887 5888 5889 5889 5890 5891 5891 5891 5891 5891 5891 5891 5891 5891 5891 5891 5891 5891 5891 5891 5891 5891 5892 5892 5892
5888 5888 5888 5887 5887 5886 5885 5885 5885 5884 5884 5885 5885 5885 5885 5885 5885 5885 5885 5886 5887 5888 5888 5889 5889 5889 5889 5889 5889 5890 5889 5889 5889 5889 5889 5890 5889 5890 5889 5890 5890 5890 5890
5888 5888 5887 5886 5885 5885 5884 5884 5883 5883 5883 5883 5883 5883 5883 5884 5884 5884 5884 5885 5885 5885 5886 5886 5887 5887 5887 5887 5887 5887 5887 5887 5887 5887 5887 5887 5887 5887 5888 5887 5888 5888 5888
5889 5888 5887 5886 5885 5884 5883 5883 5882 5881 5881 5880 5880 5880 5881 5881 5881 5881 5882 5883 5883 5883 5884 5884 5884 5885 5885 5885 5884 5884 5885 5885 5884 5884 5885 5885 5885 5885 5885 5885 5885 5886 5886
5889 5888 5886 5886 5885 5884 5883 5882 5881 5880 5879 5879 5878 5878 5878 5879 5879 5879 5879 5880 5880 5881 5881 5881 5881 5882 5882 5882 5882 5882 5882 5882 5882 5882 5882 5882 5882 5882 5882 5882 5883 5883 5883
5889 5888 5886 5885 5885 5883 5882 5881 5880 5879 5877 5876 5876 5876 5876 5876 5876 5876 5877 5877 5877 5878 5878 5878 5878 5878 5878 5879 5879 5879 5879 5878 5879 5879 5879 5879 5879 5879 5879 5879 5879 5879 5880
5889 5888 5886 5885 5884 5883 5881 5880 5879 5877 5876 5875 5874 5874 5874 5874 5874 5874 5874 5874 5874 5874 5874 5874 5875 5875 5875 5875 5875 5875 5875 5875 5875 5875 5875 5876 5876 5876 5876 5876 5876 5876 5876
5889 5887 5886 5884 5883 5882 5881 5879 5878 5876 5874 5873 5873 5872 5872 5872 5872 5872 5871 5871 5871 5871 5871 5871 5871 5871 5871 5871 5871 5871 5871 5871 5871 5871 5872 5872 5872 5872 5872 5872 5872 5872 5872
5888 5887 5885 5884 5882 5881 5880 5878 5876 5874 5873 5872 5871 5870 5869 5870 5870 5869 5868 5868 5867 5867 5867 5867 5867 5867 5867 5867 5867 5867 5866 5866 5867 5867 5867 5867 5868 5868 5868 5868 5868 5868 5868
5888 5886 5885 5883 5881 5880 5878 5876 5875 5873 5872 5871 5870 5868 5868 5867 5867 5866 5866 5865 5864 5864 5863 5863 5863 5862 5862 5862 5862 5862 5862 5862 5862 5862 5862 5862 5863 5863 5863 5863 5863 5864 5864
5886 5884 5883 5881 5879 5878 5876 5874 5872 5871 5869 5868 5867 5866 5865 5864 5863 5863 5862 5862 5861 5860 5859 5859 5858 5858 5858 5858 5857 5857 5857 5857 5857 5857 5857 5857 5857 5858 5858 5858 5858 5858 5858
5884 5882 5881 5879 5877 5875 5874 5872 5870 5868 5866 5865 5864 5863 5862 5861 5860 5859 5858 5858 5857 5856 5855 5854 5853 5853 5853 5853 5852 5852 5852 5852 5852 5852 5851 5852 5852 5852 5852 5852 5852 5853 5853
5881 5880 5878 5876 5874 5872 5870 5868 5867 5865 5863 5862 5861 5860 5859 5858 5856 5855 5854 5853 5852 5851 5850 5850 5848 5848 5848 5847 5847 5846 5846 5846 5846 5846 5846 5846 5846 5846 5846 5846 5846 5846 5846
5878 5876 5874 5872 5870 5868 5865 5864 5863 5861 5860 5858 5857 5856 5855 5853 5852 5851 5849 5848 5847 5846 5845 5845 5844 5843 5842 5841 5841 5840 5840 5840 5840 5840 5840 5840 5840 5840 5840 5840 5840 5840 5840
5874 5872 5870 5868 5866 5863 5861 5860 5859 5857 5856 5854 5852 5851 5850 5848 5847 5845 5844 5843 5842 5840 5840 5839 5838 5837 5836 5834 5834 5834 5834 5834 5833 5833 5833 5833 5833 5833 5833 5833 5833 5833 5833
5869 5867 5865 5863 5861 5859 5857 5856 5854 5853 5851 5849 5847 5846 5844 5843 5841 5839 5838 5837 5835 5834 5833 5832 5831 5830 5829 5829 5828 5827 5827 5826 5826 5826 5826 5826 5826 5826 5826 5825 5825 5825 5825
5864 5862 5860 5858 5856 5855 5853 5851 5849 5847 5846 5844 5842 5840 5839 5837 5835 5833 5832 5830 5829 5827 5826 5826 5824 5823 5822 5821 5820 5820 5819 5819 5819 5819 5819 5819 5818 5818 5818 5818 5818 5818 5818
5859 5857 5855 5853 5851 5849 5847 5845 5843 5841 5840 5838 5836 5834 5832 5830 5828 5827 5825 5823 5822 5820 5819 5818 5817 5816 5815 5814 5813 5812 5812 5811 5811 5811 5811 5811 5811 5810 5810 5810 5809 5810 5810
5853 5851 5849 5847 5844 5842 5840 5838 5837 5835 5833 5831 5829 5827 5825 5823 5822 5820 5818 5816 5814 5813 5811 5810 5810 5808 5807 5806 5805 5804 5804 5803 5803 5803 5802 5802 5802 5801 5801 5801 5801 5801 5801
5846 5844 5842 5840 5838 5836 5833 5832 5830 5828 5826 5824 5822 5819 5817 5816 5814 5812 5810 5808 5807 5805 5804 5802 5801 5800 5799 5798 5797 5796 5796 5795 5795 5794 5794 5793 5793 5792 5792 5793 5793 5792 5792
5839 5837 5835 5833 5831 5829 5827 5825 5823 5821 5819 5817 5815 5813 5811 5809 5807 5805 5802 5800 5799 5797 5795 5794 5793 5792 5791 5790 5788 5787 5787 5786 5785 5785 5785 5784 5784 5784 5783 5783 5783 5783 5783
5832 5830 5828 5826 5824 5822 5819 5818 5816 5814 5812 5810 5807 5806 5803 5801 5799 5796 5793 5792 5790 5788 5787 5785 5784 5783 5782 5780 5779 5778 5777 5777 5776 5776 5775 5775 5775 5775 5774 5774 5774 5774 5774
5825 5822 5820 5819 5817 5815 5812 5810 5808 5806 5805 5802 5800 5798 5796 5793 5790 5788 5785 5783 5781 5779 5777 5776 5775 5773 5772 5771 5770 5769 5768 5767 5767 5766 5765 5765 5765 5765 5765 5764 5764 5764 5764
5817 5815 5813 5811 5809 5807 5805 5803 5801 5799 5797 5795 5792 5790 5788 5785 5782 5779 5776 5774 5772 5770 5767 5766 5765 5763 5762 5760 5759 5759 5758 5757 5757 5756 5756 5755 5755 5755 5755 5755 5755 5754 5754
5809 5807 5805 5803 5801 5799 5797 5795 5793 5791 5789 5787 5784 5782 5779 5776 5773 5770 5768 5766 5763 5760 5758 5756 5755 5753 5752 5751 5749 5748 5748 5747 5747 5747 5746 5746 5745 5745 5745 5745 5745 5745 5745
5800 5798 5797 5795 5793 5791 5789 5787 5785 5783 5781 5779 5776 5773 5771 5768 5765 5762 5759 5757 5754 5752 5749 5748 5746 5744 5742 5741 5740 5738 5738 5737 5737 5737 5736 5736 5735 5735 5736 5736 5736 5736 5736